User: anonymous   Login
Location: Caltech
(34.1382°N, 118.1253°W)
Time: 05:37:03
(UTC-08:00)
Language:

Cosmos 1758 Rocket - Orbit

View from above orbital plane
View from above orbital plane
View from above satellite
View from above satellite

Ground track
Ground track

The orbit data is extracted from the following two-line orbital elements,

1 16792U 86046B   14353.92440249  .00000906  00000-0  10864-3 0  6577
2 16792 082.4830 338.7301 0025421 052.8119 007.4350 14.82746171539970
Epoch (UTC): 19 December 2014 22:11:08
Eccentricity: 0.0025421
inclination: 82.4830°
perigee height: 603 km
apogee height: 638 km
right ascension of ascending node: 338.7301°
argument of perigee: 52.8119°
revolutions per day: 14.82746171
mean anomaly at epoch: 7.4350°
orbit number at epoch: 53997

The dashed part of the orbit path shows where the satellite is in the earth's shadow,  

DLR